GPS BIIRM-1 (PRN 17)

Last updated on Jan. 16, 2021, 6:29 a.m. UTC

1 28874U 05038A   21015.74361164 -.00000091  00000-0  00000-0 0  9997
2 28874  56.3250 351.8231 0138212 268.9443 267.0262  2.00580749112158
UTC
Height (km)
Latitude
Longitude
Inclination
Orbital Period
UTC large
Height (km)
Speed (km/s)
/
Latitude / Longitude
Inclination (degrees)
Orbital Period (minutes)
Azimuth
Elevation
Range (km)
Doppler Factor
iOS Compass Heading
iOS Angle

Next 30 passes for location: Hong Kong

Rise time Rise Azimuth (degrees) Set time Set Azimuth (degrees) Duration Max altitude (degrees)

No matching passes for this satellites